Weather in Veliky Berezny

Ukraine / Zakarpattia District     48˚53′36″N   22˚27′27″E
temp.,
°C
wind,
m/s
gust,
m/s
humid.,
%
clouds,
%
prec.,
mm/h
press.,
hPa
HPBL,
m
3 december, thu
thu323:00−4˚e115121 0.0 102221
02:00−4˚ese125852 0.0 102121
05:00−4˚ese11632 0.0 101921
08:00−3˚ese126430 0.0 101821
11:00+1˚se1153100 0.0 101667
14:00+4˚se115488 0.0 101473
17:00se115992 0.0 101322
20:00ese125593 0.0 101322
4 december, fri
fri423:00ese1153100 0.0 101222
02:00+1˚e125499 0.0 101122
05:00+1˚ese1259100 0.0 101022
08:00+1˚ese126398 0.0 101023
11:00+5˚sse115847 0.0 100942
14:00+5˚ssw126632 0.0 100898
17:00+1˚ese127577 0.0 101022
20:00+1˚ese127989 0.0 101023
5 december, sat
sat523:00+2˚ese228680 0.0 101126
02:00+2˚ese228749 0.0 101125
05:00+2˚ese11882 0.0 101122
08:00+2˚ese128914 0.0 101222
11:00+6˚se11840 0.0 101365
14:00+7˚sse12851 0.0 101235
17:00+3˚ese22892 0.0 101324
20:00+3˚e228835 0.0 101424
6 december, sun
sun623:00+3˚e2288100 0.0 101522
02:00+3˚e2288100 0.0 101524
05:00+3˚ene2286100 0.0 101522
08:00+3˚ene228569 0.0 101422
11:00+6˚e11803 0.0 101430
14:00+8˚e12822 0.0 101128
17:00+4˚ene228662 0.0 101022
20:00+3˚ene228631 0.0 101022
7 december, mon
mon723:00+2˚e22880 0.0 101035
02:00+2˚e228632 0.1 101023
05:00+3˚ese2297100 3.1 101062
08:00+4˚ese2299100 6.8 101161
11:00+4˚se2398100 0.4 101294
14:00+4˚sse1299100 1.4 101265
17:00+4˚e1198100 0.5 101322
20:00+4˚ese1199100 3.1 101422